Location: Vancouver
(49.2500°N, 123.1330°W)
Time: 11:52:48
(UTC-08:00)

YAOGAN 6 - Visible Passes

Search period start: 19 February 2018 00:00
Search period end: 01 March 2018 00:00
Orbit: 467 x 507 km, 97.1° (Epoch: 19 February)

Date Brightness Start Highest point End Pass type
(mag) Time Alt. Az. Time Alt. Az. Time Alt. Az.
19 Feb 3.6 20:00:36 39° NNW 20:00:36 39° NNW 20:03:00 10° NNW visible
20 Feb 3.3 19:36:46 39° NNE 19:36:46 39° NNE 19:39:27 10° N visible
20 Feb 5.8 21:11:09 13° WNW 21:11:09 13° WNW 21:11:55 10° NW visible
21 Feb 3.7 19:12:54 26° ENE 19:12:54 26° ENE 19:15:41 10° N visible
21 Feb 5.1 20:47:19 22° WNW 20:47:19 22° WNW 20:49:13 10° NW visible
22 Feb 4.2 18:49:03 16° ENE 18:49:22 16° ENE 18:51:37 10° NNE visible
22 Feb 4.0 20:23:29 38° NW 20:23:29 38° NW 20:26:05 10° NNW visible
23 Feb 2.8 19:59:38 63° N 19:59:38 63° N 20:02:43 10° NNW visible
24 Feb 2.8 19:35:47 46° ENE 19:35:47 46° ENE 19:39:09 10° N visible
24 Feb 5.7 21:10:12 14° WNW 21:10:12 14° WNW 21:11:36 10° NW visible
25 Feb 3.6 19:11:56 26° E 19:12:21 26° ENE 19:15:24 10° N visible
25 Feb 4.8 20:46:21 25° W 20:46:21 25° W 20:48:55 10° NW visible
26 Feb 4.3 18:48:06 14° E 18:49:05 16° ENE 18:51:19 10° NNE visible
26 Feb 3.5 20:22:30 46° W 20:22:30 46° W 20:25:47 10° NNW visible
27 Feb 2.4 19:58:39 82° SSE 19:58:49 89° E 20:02:24 10° NNW visible
28 Feb 2.8 19:34:49 42° ESE 19:35:24 47° ENE 19:38:51 10° N visible
28 Feb 5.5 21:09:13 15° W 21:09:13 15° W 21:11:16 10° NW visible
